< < Back
Terminal Aerodrome Forecast


Current Version              Previous Versions:   1  2  3  4  5  6  7  8  9  

Terminal Aerodrome Forecast

700
FTUS42 KGSP 011100
TAFGSP
TAF
KGSP 011120Z 0112/0212 00000KT P6SM SKC
     FM011500 20005KT P6SM FEW050
     FM020300 00000KT P6SM SCT250=

Latest METAR

390
SAUS70 KWBC 011400 RRN
MTRGSP
METAR KGSP 011353Z 00000KT 9SM CLR 22/16 A3002 RMK AO2 SLP157
T02170161


USA.gov is the U.S. government's official web portal to all federal, state and local government web resources and services.